User: anonymous
Location: Unspecified
(0.0000°N, 0.0000°E)
Time: 04:46:05
(UTC+00:00)
Language:

PLEIADES HR1 - Orbit

View from above orbital plane
View from above orbital plane
View from above satellite
View from above satellite

Ground track
Ground track

The orbit data is extracted from the following two-line orbital elements,

1 38012U 11076F   14294.79720516  .00000450  00000-0  10658-3 0  1912
2 38012 098.1847 007.9630 0001634 081.8013 278.3365 14.58571285151550
Epoch (UTC): 21 October 2014 19:07:58
Eccentricity: 0.0001634
inclination: 98.1847°
perigee height: 696 km
apogee height: 699 km
right ascension of ascending node: 7.9630°
argument of perigee: 81.8013°
revolutions per day: 14.58571285
mean anomaly at epoch: 278.3365°
orbit number at epoch: 15155

The dashed part of the orbit path shows where the satellite is in the earth's shadow,  

DLR